Accueil
METAR-TAF:

METAR-TAF

Aéroports :

Statesville Regional Airport

Statesville, Caroline du Nord, États-Unis

latitude: 35-45-55N, longitude: 080-57-24W, altitude: 294 m

Observation

Le bulletin a été fait il y a 19 minutes, à 22:15 UTC
Vent 9 kt de ouest/sud-ouest
Température 8°C
Humidité 53%
Pression 1014 hPa
Visibilité: 16.1 km
Nuages épars à une hauteur de 6000 ft
Nuages épars à une hauteur de 11000 ft

METAR: KSVH 282215Z AUTO 24009KT 10SM SCT060 SCT110 08/M01 A2994 RMK AO2 T00761013

Heure: 17:34 (22:34 UTC)


TAF: absent

Observations et prévisions météorologiques de plus de 4000 aéroports (messages METAR et TAF).

Les stations disponibles sont représentées par des disques jaunes et rouges sur la carte.

Passer la souris dessus pour voir le nom de la station.

Cliquer dessus pour voir les observations et prévisions météorologiques.

Pour changer de carte: cliquez sur les boutons verts avec une croix noire pour zoomer, sur le bouton vert avec un tiret pour effectuer un zoom arrière, ou sur les flèches vertes pour les cartes adjacentes.


METAR-TAF: